Time,TemperatureF,DewpointF,PressureIn,WindDirection,WindDirectionDegrees,WindSpeedMPH,WindSpeedGustMPH,Humidity,HourlyPrecipIn,Conditions,Clouds,dailyrainin,SolarRadiationWatts/m^2,SoftwareType,DateUTC
2013-01-24 00:01:00,-2.2,-11.4,30.45,NNW,333,7.0,11.0,64,0.00,,,0.00,0,Wunderground v.1.15,2013-01-24 06:01:00,
2013-01-24 00:11:00,-2.4,-11.6,30.45,North,353,7.0,7.0,64,0.00,,,0.00,0,Wunderground v.1.15,2013-01-24 06:11:00,
2013-01-24 00:16:00,-2.4,-11.6,30.46,NW,314,5.0,7.0,64,0.00,,,0.00,0,Wunderground v.1.15,2013-01-24 06:16:00,
2013-01-24 00:26:00,-2.5,-11.4,30.46,NNW,348,10.0,10.0,65,0.00,,,0.00,0,Wunderground v.1.15,2013-01-24 06:26:00,
2013-01-24 00:36:00,-2.7,-11.3,30.46,NNW,347,4.0,5.0,66,0.00,,,0.00,0,Wunderground v.1.15,2013-01-24 06:36:00,
2013-01-24 00:46:00,-2.9,-11.5,30.48,NNW,347,10.0,10.0,66,0.00,,,0.00,0,Wunderground v.1.15,2013-01-24 06:46:00,
2013-01-24 00:56:00,-2.9,-11.5,30.47,NNW,342,4.0,7.0,66,0.00,,,0.00,0,Wunderground v.1.15,2013-01-24 06:56:00,
2013-01-24 01:06:00,-3.0,-11.5,30.48,NNW,344,9.0,9.0,66,0.00,,,0.00,0,Wunderground v.1.15,2013-01-24 07:06:00,
2013-01-24 01:11:00,-3.2,-11.7,30.48,North,356,3.0,3.0,66,0.00,,,0.00,0,Wunderground v.1.15,2013-01-24 07:11:00,
2013-01-24 01:21:00,-3.4,-11.6,30.49,NNW,346,2.0,2.0,67,0.00,,,0.00,0,Wunderground v.1.15,2013-01-24 07:21:00,
2013-01-24 01:31:00,-3.6,-11.8,30.49,NNW,331,9.0,9.0,67,0.00,,,0.00,0,Wunderground v.1.15,2013-01-24 07:31:00,
2013-01-24 01:36:00,-3.7,-11.6,30.50,NNW,335,7.0,9.0,68,0.00,,,0.00,0,Wunderground v.1.15,2013-01-24 07:36:00,
2013-01-24 01:46:00,-3.8,-11.7,30.50,NNW,330,3.0,5.0,68,0.00,,,0.00,0,Wunderground v.1.15,2013-01-24 07:46:00,
2013-01-24 01:56:00,-3.9,-11.8,30.50,NNW,343,3.0,4.0,68,0.00,,,0.00,0,Wunderground v.1.15,2013-01-24 07:56:00,
2013-01-24 02:06:00,-4.1,-11.7,30.49,NNW,344,4.0,7.0,69,0.00,,,0.00,0,Wunderground v.1.15,2013-01-24 08:06:00,
2013-01-24 02:11:00,-4.2,-11.8,30.51,NNW,338,6.0,6.0,69,0.00,,,0.00,0,Wunderground v.1.15,2013-01-24 08:11:00,
2013-01-24 02:21:00,-4.2,-11.8,30.51,North,356,5.0,5.0,69,0.00,,,0.00,0,Wunderground v.1.15,2013-01-24 08:21:00,
2013-01-24 02:31:00,-4.3,-11.9,30.51,North,350,8.0,8.0,69,0.00,,,0.00,0,Wunderground v.1.15,2013-01-24 08:31:00,
2013-01-24 02:41:00,-4.4,-12.0,30.51,NNW,343,5.0,5.0,69,0.00,,,0.00,0,Wunderground v.1.15,2013-01-24 08:41:00,
2013-01-24 02:50:00,-4.5,-12.1,30.51,NNW,345,2.0,2.0,69,0.00,,,0.00,0,Wunderground v.1.15,2013-01-24 08:50:00,
2013-01-24 02:56:00,-4.5,-12.1,30.52,NNW,327,3.0,3.0,69,0.00,,,0.00,0,Wunderground v.1.15,2013-01-24 08:56:00,
2013-01-24 03:06:00,-4.4,-11.7,30.53,NW,326,6.0,8.0,70,0.00,,,0.00,0,Wunderground v.1.15,2013-01-24 09:06:00,
2013-01-24 03:11:00,-4.4,-12.0,30.52,NNW,334,2.0,2.0,69,0.00,,,0.00,0,Wunderground v.1.15,2013-01-24 09:11:00,
2013-01-24 03:21:00,-4.5,-11.8,30.53,NNW,327,3.0,3.0,70,0.00,,,0.00,0,Wunderground v.1.15,2013-01-24 09:21:00,
2013-01-24 03:30:00,-4.5,-11.8,30.53,NW,315,4.0,4.0,70,0.00,,,0.00,0,Wunderground v.1.15,2013-01-24 09:30:00,
2013-01-24 03:36:00,-4.5,-11.8,30.53,NW,321,4.0,4.0,70,0.00,,,0.00,0,Wunderground v.1.15,2013-01-24 09:36:00,
2013-01-24 03:46:00,-4.5,-11.8,30.54,NW,322,5.0,5.0,70,0.00,,,0.00,0,Wunderground v.1.15,2013-01-24 09:46:00,
2013-01-24 03:56:00,-4.5,-11.5,30.54,NW,321,3.0,4.0,71,0.00,,,0.00,0,Wunderground v.1.15,2013-01-24 09:56:00,
2013-01-24 04:01:00,-4.6,-11.6,30.54,NNW,340,4.0,4.0,71,0.00,,,0.00,0,Wunderground v.1.15,2013-01-24 10:01:00,
2013-01-24 04:10:00,-4.6,-11.6,30.55,NNW,329,4.0,4.0,71,0.00,,,0.00,0,Wunderground v.1.15,2013-01-24 10:10:00,
2013-01-24 04:16:00,-4.6,-11.6,30.55,NNW,330,4.0,4.0,71,0.00,,,0.00,0,Wunderground v.1.15,2013-01-24 10:16:00,
2013-01-24 04:26:00,-4.6,-11.9,30.55,NNW,327,7.0,7.0,70,0.00,,,0.00,0,Wunderground v.1.15,2013-01-24 10:26:00,
2013-01-24 04:31:00,-4.6,-11.6,30.55,NNW,333,5.0,5.0,71,0.00,,,0.00,0,Wunderground v.1.15,2013-01-24 10:31:00,
2013-01-24 04:36:00,-4.6,-11.9,30.55,NW,313,4.0,5.0,70,0.00,,,0.00,0,Wunderground v.1.15,2013-01-24 10:36:00,
2013-01-24 04:46:00,-4.6,-11.9,30.55,NNW,329,5.0,7.0,70,0.00,,,0.00,0,Wunderground v.1.15,2013-01-24 10:46:00,
2013-01-24 04:56:00,-4.6,-11.9,30.56,North,350,7.0,7.0,70,0.00,,,0.00,0,Wunderground v.1.15,2013-01-24 10:56:00,
2013-01-24 05:06:00,-4.6,-11.9,30.56,NW,325,4.0,5.0,70,0.00,,,0.00,0,Wunderground v.1.15,2013-01-24 11:06:00,
2013-01-24 05:11:00,-4.5,-11.5,30.56,NW,314,2.0,2.0,71,0.00,,,0.00,0,Wunderground v.1.15,2013-01-24 11:11:00,
2013-01-24 05:21:00,-4.6,-11.6,30.56,NNW,339,4.0,4.0,71,0.00,,,0.00,0,Wunderground v.1.15,2013-01-24 11:21:00,
2013-01-24 05:31:00,-4.5,-11.8,30.55,NNW,328,3.0,3.0,70,0.00,,,0.00,0,Wunderground v.1.15,2013-01-24 11:31:00,
2013-01-24 05:41:00,-4.4,-11.7,30.56,NW,317,3.0,3.0,70,0.00,,,0.00,0,Wunderground v.1.15,2013-01-24 11:41:00,
2013-01-24 05:51:00,-4.3,-11.3,30.57,NW,312,5.0,5.0,71,0.00,,,0.00,0,Wunderground v.1.15,2013-01-24 11:51:00,
2013-01-24 06:01:00,-4.1,-11.1,30.55,NW,312,1.0,9.0,71,0.00,,,0.00,0,Wunderground v.1.15,2013-01-24 12:01:00,
2013-01-24 06:11:00,-4.1,-10.9,30.57,NW,312,6.0,6.0,72,0.00,,,0.00,0,Wunderground v.1.15,2013-01-24 12:11:00,
2013-01-24 06:16:00,-4.0,-11.0,30.56,NW,313,3.0,6.0,71,0.00,,,0.00,0,Wunderground v.1.15,2013-01-24 12:16:00,
2013-01-24 06:26:00,-4.1,-10.9,30.56,NW,324,4.0,4.0,72,0.00,,,0.00,0,Wunderground v.1.15,2013-01-24 12:26:00,
2013-01-24 06:36:00,-3.9,-10.9,30.56,NNW,334,2.0,3.0,71,0.00,,,0.00,0,Wunderground v.1.15,2013-01-24 12:36:00,
2013-01-24 06:46:00,-3.9,-10.9,30.57,NNW,344,3.0,4.0,71,0.00,,,0.00,0,Wunderground v.1.15,2013-01-24 12:46:00,
2013-01-24 06:56:00,-4.0,-11.3,30.57,NNW,339,3.0,3.0,70,0.00,,,0.00,0,Wunderground v.1.15,2013-01-24 12:56:00,
2013-01-24 07:06:00,-4.2,-11.2,30.57,NNW,342,1.0,5.0,71,0.00,,,0.00,0,Wunderground v.1.15,2013-01-24 13:06:00,
2013-01-24 07:11:00,-4.4,-11.7,30.57,North,352,3.0,3.0,70,0.00,,,0.00,0,Wunderground v.1.15,2013-01-24 13:11:00,
2013-01-24 07:21:00,-4.3,-11.3,30.57,North,349,5.0,5.0,71,0.00,,,0.00,0,Wunderground v.1.15,2013-01-24 13:21:00,
2013-01-24 07:26:00,-4.3,-11.3,30.58,NNW,342,3.0,5.0,71,0.00,,,0.00,0,Wunderground v.1.15,2013-01-24 13:26:00,
2013-01-24 07:36:00,-4.3,-11.3,30.58,NNW,345,3.0,4.0,71,0.00,,,0.00,0,Wunderground v.1.15,2013-01-24 13:36:00,
2013-01-24 07:46:00,-4.1,-11.1,30.59,North,349,2.0,2.0,71,0.00,,,0.00,0,Wunderground v.1.15,2013-01-24 13:46:00,
2013-01-24 07:56:00,-3.7,-10.7,30.59,North,355,2.0,3.0,71,0.00,,,0.00,0,Wunderground v.1.15,2013-01-24 13:56:00,
2013-01-24 08:06:00,-3.4,-10.7,30.59,NNW,335,7.0,7.0,70,0.00,,,0.00,0,Wunderground v.1.15,2013-01-24 14:06:00,
2013-01-24 08:11:00,-3.4,-10.7,30.59,North,351,3.0,3.0,70,0.00,,,0.00,0,Wunderground v.1.15,2013-01-24 14:11:00,
2013-01-24 08:21:00,-3.1,-10.7,30.60,NNW,344,2.0,2.0,69,0.00,,,0.00,0,Wunderground v.1.15,2013-01-24 14:21:00,
2013-01-24 08:31:00,-2.4,-10.1,30.60,NNW,335,2.0,2.0,69,0.00,,,0.00,0,Wunderground v.1.15,2013-01-24 14:31:00,
2013-01-24 08:41:00,-2.1,-9.8,30.59,NNW,336,3.0,3.0,69,0.00,,,0.00,0,Wunderground v.1.15,2013-01-24 14:41:00,
2013-01-24 08:51:00,-1.7,-9.4,30.59,NNW,339,4.0,4.0,69,0.00,,,0.00,0,Wunderground v.1.15,2013-01-24 14:51:00,
2013-01-24 09:01:00,-1.5,-9.5,30.59,NNW,342,2.0,7.0,68,0.00,,,0.00,0,Wunderground v.1.15,2013-01-24 15:01:00,
2013-01-24 09:06:00,-1.3,-9.3,30.59,NNW,342,2.0,7.0,68,0.00,,,0.00,0,Wunderground v.1.15,2013-01-24 15:06:00,
2013-01-24 09:16:00,-0.5,-8.5,30.60,North,349,1.0,1.0,68,0.00,,,0.00,0,Wunderground v.1.15,2013-01-24 15:16:00,
2013-01-24 09:26:00,0.1,-8.3,30.59,North,349,2.0,2.0,67,0.00,,,0.00,0,Wunderground v.1.15,2013-01-24 15:26:00,
2013-01-24 09:36:00,0.5,-8.5,30.59,North,351,3.0,3.0,65,0.00,,,0.00,0,Wunderground v.1.15,2013-01-24 15:36:00,
2013-01-24 09:46:00,0.5,-8.2,30.59,NE,38,0.0,3.0,66,0.00,,,0.00,0,Wunderground v.1.15,2013-01-24 15:46:00,
2013-01-24 09:56:00,1.4,-7.3,30.59,NE,38,2.0,2.0,66,0.00,,,0.00,0,Wunderground v.1.15,2013-01-24 15:56:00,
2013-01-24 10:06:00,2.2,-6.9,30.59,NE,38,3.0,3.0,65,0.00,,,0.00,0,Wunderground v.1.15,2013-01-24 16:06:00,
2013-01-24 10:16:00,3.2,-6.2,30.59,NE,38,1.0,1.0,64,0.00,,,0.00,0,Wunderground v.1.15,2013-01-24 16:16:00,
2013-01-24 10:26:00,3.7,-6.1,30.59,NE,38,0.0,2.0,63,0.00,,,0.00,0,Wunderground v.1.15,2013-01-24 16:26:00,
2013-01-24 10:36:00,4.6,-4.9,30.58,NE,38,0.0,1.0,64,0.00,,,0.00,0,Wunderground v.1.15,2013-01-24 16:36:00,
2013-01-24 10:46:00,5.6,-4.3,30.58,NE,39,0.0,4.0,63,0.00,,,0.00,0,Wunderground v.1.15,2013-01-24 16:46:00,
2013-01-24 10:56:00,6.4,-4.2,30.58,NE,39,2.0,3.0,61,0.00,,,0.00,0,Wunderground v.1.15,2013-01-24 16:56:00,
2013-01-24 11:06:00,7.1,-4.2,30.57,NE,39,0.0,0.0,59,0.00,,,0.00,0,Wunderground v.1.15,2013-01-24 17:06:00,
2013-01-24 11:16:00,7.5,-3.9,30.56,East,97,0.0,2.0,59,0.00,,,0.00,0,Wunderground v.1.15,2013-01-24 17:16:00,
2013-01-24 11:21:00,7.8,-3.6,30.56,East,97,2.0,2.0,59,0.00,,,0.00,0,Wunderground v.1.15,2013-01-24 17:21:00,
2013-01-24 11:31:00,8.0,-3.7,30.56,SE,140,3.0,3.0,58,0.00,,,0.00,0,Wunderground v.1.15,2013-01-24 17:31:00,
2013-01-24 11:41:00,8.4,-3.4,30.56,SSE,166,1.0,1.0,58,0.00,,,0.00,0,Wunderground v.1.15,2013-01-24 17:41:00,
2013-01-24 11:46:00,8.9,-2.9,30.56,SSE,152,7.0,7.0,58,0.00,,,0.00,0,Wunderground v.1.15,2013-01-24 17:46:00,
2013-01-24 11:56:00,9.1,-3.1,30.55,SSE,161,4.0,5.0,57,0.00,,,0.00,0,Wunderground v.1.15,2013-01-24 17:56:00,
2013-01-24 12:06:00,9.4,-2.4,30.55,SSE,163,3.0,4.0,58,0.00,,,0.00,0,Wunderground v.1.15,2013-01-24 18:06:00,
2013-01-24 12:16:00,9.5,-3.1,30.55,SSE,163,0.0,2.0,56,0.00,,,0.00,0,Wunderground v.1.15,2013-01-24 18:16:00,
2013-01-24 12:21:00,9.7,-2.1,30.54,South,170,3.0,3.0,58,0.00,,,0.00,0,Wunderground v.1.15,2013-01-24 18:21:00,
2013-01-24 12:31:00,10.2,-2.4,30.55,SSE,168,2.0,2.0,56,0.00,,,0.00,0,Wunderground v.1.15,2013-01-24 18:31:00,
2013-01-24 12:41:00,10.3,-1.9,30.54,SSE,150,3.0,3.0,57,0.00,,,0.00,0,Wunderground v.1.15,2013-01-24 18:41:00,
2013-01-24 12:46:00,10.6,-1.7,30.54,SSE,149,4.0,4.0,57,0.00,,,0.00,0,Wunderground v.1.15,2013-01-24 18:46:00,
2013-01-24 12:56:00,10.9,-1.7,30.52,South,174,1.0,5.0,56,0.00,,,0.00,0,Wunderground v.1.15,2013-01-24 18:56:00,
2013-01-24 13:06:00,11.2,-1.1,30.51,SSE,162,2.0,2.0,57,0.00,,,0.00,0,Wunderground v.1.15,2013-01-24 19:06:00,
2013-01-24 13:16:00,11.6,-1.1,30.51,SSE,150,2.0,4.0,56,0.00,,,0.00,0,Wunderground v.1.15,2013-01-24 19:16:00,
2013-01-24 13:26:00,11.3,-1.4,30.50,SE,142,4.0,4.0,56,0.00,,,0.00,0,Wunderground v.1.15,2013-01-24 19:26:00,
2013-01-24 13:36:00,11.2,-1.5,30.49,SSE,150,3.0,3.0,56,0.00,,,0.00,0,Wunderground v.1.15,2013-01-24 19:36:00,
2013-01-24 13:41:00,11.1,-1.6,30.50,SSE,150,1.0,1.0,56,0.00,,,0.00,0,Wunderground v.1.15,2013-01-24 19:41:00,
2013-01-24 13:51:00,11.2,-1.1,30.49,SE,146,4.0,4.0,57,0.00,,,0.00,0,Wunderground v.1.15,2013-01-24 19:51:00,
2013-01-24 14:01:00,11.3,-1.0,30.48,SE,142,0.0,0.0,57,0.00,,,0.00,0,Wunderground v.1.15,2013-01-24 20:01:00,
2013-01-24 14:11:00,11.6,-0.7,30.48,SSE,147,1.0,1.0,57,0.00,,,0.00,0,Wunderground v.1.15,2013-01-24 20:11:00,
2013-01-24 14:16:00,11.6,-1.1,30.48,SE,142,1.0,1.0,56,0.00,,,0.00,0,Wunderground v.1.15,2013-01-24 20:16:00,
2013-01-24 14:26:00,11.8,-1.3,30.47,South,177,2.0,2.0,55,0.00,,,0.00,0,Wunderground v.1.15,2013-01-24 20:26:00,
2013-01-24 14:36:00,11.9,-0.8,30.48,SSE,155,5.0,5.0,56,0.00,,,0.00,0,Wunderground v.1.15,2013-01-24 20:36:00,
2013-01-24 14:46:00,11.9,-0.8,30.47,SSE,155,1.0,4.0,56,0.00,,,0.00,0,Wunderground v.1.15,2013-01-24 20:46:00,
2013-01-24 14:56:00,11.9,-0.8,30.48,SSE,151,3.0,3.0,56,0.00,,,0.00,0,Wunderground v.1.15,2013-01-24 20:56:00,
2013-01-24 15:06:00,12.2,-0.5,30.47,SE,141,4.0,4.0,56,0.00,,,0.00,0,Wunderground v.1.15,2013-01-24 21:06:00,
2013-01-24 15:16:00,12.3,-0.1,30.46,SE,141,4.0,4.0,57,0.00,,,0.00,0,Wunderground v.1.15,2013-01-24 21:16:00,
2013-01-24 15:26:00,12.1,-1.0,30.47,SE,141,1.0,3.0,55,0.00,,,0.00,0,Wunderground v.1.15,2013-01-24 21:26:00,
2013-01-24 15:35:00,12.4,-0.3,30.45,SE,142,3.0,3.0,56,0.00,,,0.00,0,Wunderground v.1.15,2013-01-24 21:35:00,
2013-01-24 15:41:00,12.4,-0.3,30.45,SE,142,0.0,0.0,56,0.00,,,0.00,0,Wunderground v.1.15,2013-01-24 21:41:00,
2013-01-24 15:51:00,12.3,-0.4,30.45,SE,141,2.0,2.0,56,0.00,,,0.00,0,Wunderground v.1.15,2013-01-24 21:51:00,
2013-01-24 16:01:00,12.0,-0.7,30.45,SE,145,3.0,3.0,56,0.00,,,0.00,0,Wunderground v.1.15,2013-01-24 22:01:00,
2013-01-24 16:11:00,11.9,-0.8,30.44,ESE,119,0.0,0.0,56,0.00,,,0.00,0,Wunderground v.1.15,2013-01-24 22:11:00,
2013-01-24 16:21:00,12.0,-0.7,30.43,ESE,119,1.0,1.0,56,0.00,,,0.00,0,Wunderground v.1.15,2013-01-24 22:21:00,
2013-01-24 16:31:00,11.8,-0.9,30.44,SSE,152,2.0,2.0,56,0.00,,,0.00,0,Wunderground v.1.15,2013-01-24 22:31:00,
2013-01-24 16:36:00,11.7,-0.6,30.43,SE,142,3.0,3.0,57,0.00,,,0.00,0,Wunderground v.1.15,2013-01-24 22:36:00,
2013-01-24 16:46:00,11.7,-1.4,30.42,ESE,114,4.0,4.0,55,0.00,,,0.00,0,Wunderground v.1.15,2013-01-24 22:46:00,
2013-01-24 16:56:00,11.6,-1.1,30.41,SE,128,3.0,6.0,56,0.00,,,0.00,0,Wunderground v.1.15,2013-01-24 22:56:00,
2013-01-24 17:06:00,11.6,-0.7,30.42,ESE,114,0.0,3.0,57,0.00,,,0.00,0,Wunderground v.1.15,2013-01-24 23:06:00,
2013-01-24 17:11:00,11.6,-1.1,30.41,ESE,114,4.0,4.0,56,0.00,,,0.00,0,Wunderground v.1.15,2013-01-24 23:11:00,
2013-01-24 17:21:00,11.5,-0.8,30.40,SE,140,4.0,4.0,57,0.00,,,0.00,0,Wunderground v.1.15,2013-01-24 23:21:00,
2013-01-24 17:31:00,11.5,-1.2,30.40,ESE,104,7.0,7.0,56,0.00,,,0.00,0,Wunderground v.1.15,2013-01-24 23:31:00,
2013-01-24 17:41:00,11.4,-0.9,30.39,SE,125,7.0,7.0,57,0.00,,,0.00,0,Wunderground v.1.15,2013-01-24 23:41:00,
2013-01-24 17:51:00,11.2,-1.1,30.38,SE,137,7.0,7.0,57,0.00,,,0.00,0,Wunderground v.1.15,2013-01-24 23:51:00,
2013-01-24 17:56:00,11.2,-1.5,30.37,SSE,148,4.0,7.0,56,0.00,,,0.00,0,Wunderground v.1.15,2013-01-24 23:56:00,
2013-01-24 18:06:00,11.3,-1.0,30.38,ESE,109,5.0,7.0,57,0.00,,,0.00,0,Wunderground v.1.15,2013-01-25 00:06:00,
2013-01-24 18:16:00,11.4,-0.5,30.36,SE,130,5.0,6.0,58,0.00,,,0.00,0,Wunderground v.1.15,2013-01-25 00:16:00,
2013-01-24 18:26:00,11.3,-0.3,30.36,SE,138,5.0,5.0,59,0.00,,,0.00,0,Wunderground v.1.15,2013-01-25 00:26:00,
2013-01-24 18:36:00,11.3,-0.6,30.37,SE,136,4.0,6.0,58,0.00,,,0.00,0,Wunderground v.1.15,2013-01-25 00:36:00,
2013-01-24 18:41:00,11.2,-0.4,30.38,SE,127,4.0,4.0,59,0.00,,,0.00,0,Wunderground v.1.15,2013-01-25 00:41:00,
2013-01-24 18:51:00,11.2,-0.4,30.37,SE,130,9.0,9.0,59,0.00,,,0.00,0,Wunderground v.1.15,2013-01-25 00:51:00,
2013-01-24 19:01:00,11.1,-0.5,30.36,SE,134,3.0,3.0,59,0.00,,,0.00,0,Wunderground v.1.15,2013-01-25 01:01:00,
2013-01-24 19:11:00,11.1,-0.8,30.35,ESE,119,3.0,3.0,58,0.00,,,0.00,0,Wunderground v.1.15,2013-01-25 01:11:00,
2013-01-24 19:16:00,11.1,-0.8,30.35,ESE,114,3.0,3.0,58,0.00,,,0.00,0,Wunderground v.1.15,2013-01-25 01:16:00,
2013-01-24 19:26:00,11.0,-0.2,30.34,SE,139,3.0,4.0,60,0.00,,,0.00,0,Wunderground v.1.15,2013-01-25 01:26:00,
2013-01-24 19:36:00,11.3,-0.3,30.35,SE,146,8.0,8.0,59,0.00,,,0.00,0,Wunderground v.1.15,2013-01-25 01:36:00,
2013-01-24 19:46:00,11.2,0.0,30.34,SE,140,9.0,9.0,60,0.00,,,0.00,0,Wunderground v.1.15,2013-01-25 01:46:00,
2013-01-24 19:56:00,11.2,0.0,30.34,ESE,117,6.0,7.0,60,0.00,,,0.00,0,Wunderground v.1.15,2013-01-25 01:56:00,
2013-01-24 20:06:00,11.3,0.1,30.34,SE,131,2.0,3.0,60,0.00,,,0.00,0,Wunderground v.1.15,2013-01-25 02:06:00,
2013-01-24 20:11:00,11.3,0.1,30.33,SE,131,5.0,5.0,60,0.00,,,0.00,0,Wunderground v.1.15,2013-01-25 02:11:00,
2013-01-24 20:21:00,11.6,0.4,30.33,SE,136,2.0,2.0,60,0.00,,,0.00,0,Wunderground v.1.15,2013-01-25 02:21:00,
2013-01-24 20:31:00,11.6,0.7,30.32,SE,145,3.0,3.0,61,0.00,,,0.00,0,Wunderground v.1.15,2013-01-25 02:31:00,
2013-01-24 20:41:00,11.7,0.8,30.32,SE,142,6.0,6.0,61,0.00,,,0.00,0,Wunderground v.1.15,2013-01-25 02:41:00,
2013-01-24 20:51:00,11.7,0.8,30.30,SE,141,8.0,8.0,61,0.00,,,0.00,0,Wunderground v.1.15,2013-01-25 02:51:00,
2013-01-24 21:01:00,11.8,0.9,30.30,SE,124,4.0,4.0,61,0.00,,,0.00,0,Wunderground v.1.15,2013-01-25 03:01:00,
2013-01-24 21:06:00,11.8,0.9,30.29,SE,125,9.0,9.0,61,0.00,,,0.00,0,Wunderground v.1.15,2013-01-25 03:06:00,
2013-01-24 21:16:00,11.7,0.8,30.28,SE,141,3.0,4.0,61,0.00,,,0.00,0,Wunderground v.1.15,2013-01-25 03:16:00,
2013-01-24 21:26:00,11.9,1.0,30.29,ESE,119,3.0,5.0,61,0.00,,,0.00,0,Wunderground v.1.15,2013-01-25 03:26:00,
2013-01-24 21:36:00,11.9,1.0,30.28,SE,131,5.0,5.0,61,0.00,,,0.00,0,Wunderground v.1.15,2013-01-25 03:36:00,
2013-01-24 21:46:00,12.0,1.5,30.28,SE,133,4.0,8.0,62,0.00,,,0.00,0,Wunderground v.1.15,2013-01-25 03:46:00,
2013-01-24 21:56:00,12.0,1.1,30.28,SE,144,8.0,8.0,61,0.00,,,0.00,0,Wunderground v.1.15,2013-01-25 03:56:00,
2013-01-24 22:06:00,12.0,1.5,30.27,SE,138,5.0,9.0,62,0.00,,,0.00,0,Wunderground v.1.15,2013-01-25 04:06:00,
2013-01-24 22:16:00,11.9,1.4,30.27,SE,143,4.0,5.0,62,0.00,,,0.00,0,Wunderground v.1.15,2013-01-25 04:16:00,
2013-01-24 22:21:00,11.9,1.4,30.27,SSE,154,4.0,4.0,62,0.00,,,0.00,0,Wunderground v.1.15,2013-01-25 04:21:00,
2013-01-24 22:31:00,12.2,2.0,30.27,SE,141,8.0,8.0,63,0.00,,,0.00,0,Wunderground v.1.15,2013-01-25 04:31:00,
2013-01-24 22:41:00,12.0,1.8,30.27,SE,142,7.0,7.0,63,0.00,,,0.00,0,Wunderground v.1.15,2013-01-25 04:41:00,
2013-01-24 22:51:00,12.1,1.9,30.26,SE,133,7.0,7.0,63,0.00,,,0.00,0,Wunderground v.1.15,2013-01-25 04:51:00,
2013-01-24 23:06:00,12.2,2.0,30.26,SE,131,3.0,11.0,63,0.00,,,0.00,0,Wunderground v.1.15,2013-01-25 05:06:00,
2013-01-24 23:16:00,12.3,2.4,30.26,SSE,148,2.0,3.0,64,0.00,,,0.00,0,Wunderground v.1.15,2013-01-25 05:16:00,
2013-01-24 23:21:00,12.3,2.1,30.26,SSE,148,5.0,5.0,63,0.00,,,0.00,0,Wunderground v.1.15,2013-01-25 05:21:00,
2013-01-24 23:31:00,12.4,2.5,30.24,SE,124,4.0,4.0,64,0.00,,,0.00,0,Wunderground v.1.15,2013-01-25 05:31:00,
2013-01-24 23:36:00,12.5,2.6,30.24,SE,128,3.0,4.0,64,0.00,,,0.00,0,Wunderground v.1.15,2013-01-25 05:36:00,
2013-01-24 23:46:00,12.6,3.1,30.24,SSE,147,4.0,6.0,65,0.00,,,0.00,0,Wunderground v.1.15,2013-01-25 05:46:00,
2013-01-24 23:56:00,12.6,2.7,30.24,SSE,148,3.0,5.0,64,0.00,,,0.00,0,Wunderground v.1.15,2013-01-25 05:56:00,